Location: Caltech
(34.1382°N, 118.1253°W)
Time: 18:50:13
(UTC-07:00)

PCSat - Visible Passes

Search period start: 26 July 2016 00:00
Search period end: 05 August 2016 00:00
Orbit: 786 x 795 km, 67.0° (Epoch: 26 July)

Date Brightness Start Highest point End Pass type
(mag) Time Alt. Az. Time Alt. Az. Time Alt. Az.
26 Jul 13.0 03:44:13 10° NNE 03:45:57 11° NE 03:47:41 10° ENE visible
26 Jul 9.7 05:24:41 10° NNW 05:30:08 85° ENE 05:35:33 10° SSE visible
27 Jul 10.2 04:53:56 10° NNW 04:59:18 60° ENE 05:04:37 10° SE visible
28 Jul 10.9 04:23:15 10° NNW 04:28:24 42° ENE 04:33:31 10° SE visible
28 Jul 12.9 20:47:41 10° WNW 20:50:09 13° NW 20:52:36 10° NNW visible
29 Jul 11.4 03:52:41 10° N 03:57:28 31° ENE 04:02:13 10° ESE visible
29 Jul 12.6 20:15:28 10° W 20:19:04 18° NW 20:22:41 10° N visible
30 Jul 11.9 03:22:16 10° N 03:26:29 23° NE 03:30:41 10° ESE visible
30 Jul 9.9 05:04:56 10° NW 05:10:03 44° WSW 05:15:08 10° S visible
31 Jul 12.3 02:52:02 10° NNE 02:55:27 17° NE 02:58:51 10° E visible
31 Jul 9.5 04:33:55 10° NNW 04:39:17 64° WSW 04:44:36 10° SSE visible
01 Aug 12.5 02:22:16 10° NNE 02:24:22 12° NE 02:26:28 10° ENE visible
01 Aug 9.5 04:03:02 10° NNW 04:08:29 90° N 04:13:53 10° SSE visible
02 Aug 9.9 03:32:15 10° NNW 03:37:39 64° ENE 03:43:00 10° SE visible
02 Aug 11.2 05:17:51 10° WNW 05:20:24 14° WSW 05:22:58 10° SW visible
03 Aug 10.5 03:01:34 10° NNW 03:06:47 45° ENE 03:08:55 30° ESE visible
03 Aug 10.8 04:45:56 10° WNW 04:49:26 20° W 04:49:26 20° W visible
04 Aug 11.0 02:30:59 10° N 02:35:51 32° ENE 02:36:40 31° ENE visible
04 Aug 10.8 04:14:30 10° NW 04:17:15 23° WNW 04:17:15 23° WNW visible
